This is the latest recevied weather packets stored in our database for station/object N3SBK. If no packets are shown the sender has not sent any weather packets the latest 10 day(s).
| Time | Temp. | Humidity | Pressure | Rain* | Wind** | Luminosity | Snow |
|---|---|---|---|---|---|---|---|
| 1777988653 | 19.44° C | 52% | 1001.2 hPa | 0 mm | - | 116 W/m² | - |
| 1777988350 | 19.44° C | 53% | 1001.3 hPa | 0 mm | - | 107 W/m² | - |
| 1777988047 | 19.44° C | 53% | 1001.1 hPa | 0 mm | - | 67 W/m² | - |
| 1777987742 | 19.44° C | 54% | 1001 hPa | 0 mm | - | 111 W/m² | - |
| 1777987440 | 19.44° C | 55% | 1001 hPa | 0 mm | - | 105 W/m² | - |
| 1777987137 | 19.44° C | 55% | 1001.2 hPa | 0 mm | - | 86 W/m² | - |
| 1777986834 | 19.44° C | 55% | 1001 hPa | 0 mm | - | 114 W/m² | - |
| 1777986532 | 18.89° C | 55% | 1001 hPa | 0 mm | - | 116 W/m² | - |
| 1777986230 | 18.89° C | 55% | 1001.2 hPa | 0 mm | - | 76 W/m² | - |
| 1777985926 | 18.89° C | 56% | 1001 hPa | 0 mm | - | 120 W/m² | - |
| 1777985625 | 18.89° C | 57% | 1001 hPa | 0 mm | - | 105 W/m² | - |
| 1777985320 | 18.33° C | 55% | 1001 hPa | 0 mm | - | 73 W/m² | - |
| 1777985017 | 18.33° C | 55% | 1001.1 hPa | 0 mm | - | 90 W/m² | - |
| 1777984713 | 18.33° C | 58% | 1001.2 hPa | 0 mm | - | 82 W/m² | - |
| 1777984410 | 18.33° C | 57% | 1001.2 hPa | 0 mm | - | 50 W/m² | - |
| 1777984106 | 18.33° C | 56% | 1001.3 hPa | 0 mm | - | 38 W/m² | - |
| 1777983804 | 18.33° C | 57% | 1001.2 hPa | 0 mm | - | 63 W/m² | - |
| 1777983500 | 17.78° C | 58% | 1001.5 hPa | 0 mm | - | 35 W/m² | - |
| 1777983197 | 17.78° C | 58% | 1001.3 hPa | 0 mm | - | 39 W/m² | - |
| 1777982893 | 17.78° C | 57% | 1001.4 hPa | 0 mm | - | 37 W/m² | - |
| 1777982589 | 17.78° C | 58% | 1001.4 hPa | 0 mm | - | 41 W/m² | - |
| 1777982288 | 17.78° C | 59% | 1001.4 hPa | 0 mm | - | 35 W/m² | - |
| 1777981986 | 17.78° C | 58% | 1001.5 hPa | 0 mm | - | 32 W/m² | - |
| 1777981683 | 17.78° C | 59% | 1001.5 hPa | 0 mm | - | 29 W/m² | - |
| 1777981380 | 17.78° C | 59% | 1001.4 hPa | 0 mm | - | 23 W/m² | - |
* Rain latest hour (hover to see other rain measurements)
** Current wind speed in m/s (hover to see current wind gust speed)